SSEC Globe Logo

Space Science and Engineering Center

Wisconsin State Observations

ASUS43 KMKX 210221                                              2018233 0221
RWRWI
WISCONSIN REGIONAL WEATHER ROUNDUP
NATIONAL WEATHER SERVICE MILWAUKEE/SULLIVAN WI
NOTE: "FAIR" INDICATES FEW OR NO CLOUDS BELOW 12,000 FEET WITH NO
SIGNIFICANT WEATHER AND/OR OBSTRUCTIONS TO VISIBILITY.

CITY           SKY/WX    TMP DP  RH WIND       PRES   REMARKS
SUPERIOR ARPT  CLOUDY    63  61  92 E5        30.05R
ASHLAND        CLOUDY    61  61 100 NE13G22   30.06R FOG
HAYWARD        CLOUDY    62  62 100 NE14      30.04R FOG
SIREN          NOT AVBL
CUMBERLAND     CLOUDY    63  61  94 N6        30.02R
RICE LAKE      MOCLDY    63  44  49 CALM      30.02R
CHETEK         MOCLDY    63  63  99 NW3       30.01R
LADYSMITH      CLOUDY    66  64  93 MISG      30.02R
EAU CLAIRE     FAIR      66  63  90 N3        29.94F
MENOMONIE      FAIR      66  63  90 NW6       29.97S
NEW RICHMOND   FAIR      63  61  93 N5        30.01R
OSCEOLA        FAIR      64  63  96 CALM      30.04R


CITY           SKY/WX    TMP DP  RH WIND       PRES   REMARKS
MANITOWISH WTR CLOUDY    63  63 100 NE7       30.02S
ARBOR VITAE    MOCLDY    66  64  91 N3        30.01R
WOODRUFF       MOCLDY    66  64  91 N3        30.01R
RHINELANDER    MOCLDY    69  65  86 SE8       30.01R
EAGLE RIVER    FAIR      64  64  98 N7        29.99S
LAND O LAKES   FAIR      65  62  88 N7        30.03R
PHILLIPS       MOCLDY    64  64 100 N6        30.01R
TOMAHAWK       MOCLDY    65  63  92 N5        30.00R
MEDFORD        DRIZZLE   64  63  94 N7        29.97S
MERRILL        CLOUDY    66  65  97 CALM      29.97S


CITY           SKY/WX    TMP DP  RH WIND       PRES   REMARKS
WAUSAU         FAIR      67  64  90 N5        29.95R
MOSINEE        PTCLDY    66  64  94 NE6       29.96S
MARSHFIELD     FAIR      67  65  93 NE7       29.94S
STEVENS POINT  RAIN      67  66  97 E5        29.96R
WAUPACA        RAIN      70  68  94 N6        29.93S
WAUTOMA        LGT RAIN  67  65  93 N7        29.92R
WISC RAPIDS    LGT RAIN  70  64  81 E7        29.95R
CAMP DOUGLAS   FAIR      65  64  98 E8        29.92R


CITY           SKY/WX    TMP DP  RH WIND       PRES   REMARKS
ANTIGO         FAIR      64  64 100 NE5       29.98S
SHAWANO        MOCLDY    72  66  81 NE9       29.94S
OCONTO         FAIR      71  64  80 NE5       29.93R
STURGEON BAY   FAIR      70  65  84 NE7       29.94F
GREEN BAY      FAIR      72  66  81 NE13      29.92R
MANITOWOC      MOCLDY    72  67  84 N6        29.91S
APPLETON       MOCLDY    70  59  68 NE7       29.91R
CLINTONVILLE   CLOUDY    69  64  84 NE6       29.94R
OSHKOSH        LGT RAIN  72  65  78 NE10G23   29.89R


CITY           SKY/WX    TMP DP  RH WIND       PRES   REMARKS
LA CROSSE      LGT RAIN  69  59  70 N9        29.89S
SPARTA         CLOUDY    63  60  90 E8        29.93R
VIROQUA        CLOUDY    66  66 100 NE5       29.91R
BOSCOBEL       LGT RAIN  68  65  90 NE5       29.86R
PRAIRIE DU CHI CLOUDY    69  63  80 NE8       29.86R
PLATTEVILLE    CLOUDY    65  65 100 NE12G20   29.83R

CITY           SKY/WX    TMP DP  RH WIND       PRES   REMARKS
REEDSBURG      RAIN      64  64 100 NE12      29.89R
BARABOO/DELLS  RAIN      65  63  94 NE13G18   29.90R
LONE ROCK      LGT RAIN  67  66  97 NE3       29.86R
MINERAL POINT  LGT RAIN  64  64 100 NE17G28   29.83S
MADISON        HVY RAIN  66  65  96 NE21G32   29.81R VSB 1
MIDDLETON      CLOUDY    66  66 100 NW6       29.83F VSB 3/4
WATERTOWN      LGT RAIN  67  67 100 NE17G26   29.82R
MONROE         FAIR      67  65  96 N8        29.80S
JANESVILLE     CLOUDY    70  70 100 N6        29.79R


CITY           SKY/WX    TMP DP  RH WIND       PRES   REMARKS
MILWAUKEE      LGT RAIN  75  67  76 E21G30    29.81F
WAUKESHA       HVY RAIN  66  64  94 NE7       29.84R
MILWAUKEE/TIMM LGT RAIN  70  63  78 E3        29.83S
RACINE         CLOUDY    73  69  87 MISG      29.82S
BURLINGTON     LGT RAIN  70  68  94 E8        29.80R
KENOSHA        CLOUDY    74  71  91 SE16G28   29.80F
FOND DU LAC    LGT RAIN  70  65  84 NE9       29.89R
SHEBOYGAN      MOCLDY    72  68  87 NE15      29.87S
WEST BEND      RAIN      68  68 100 NE8       29.86F
JUNEAU         RAIN      68  66  96 NE12G18   29.87R
LSZ147-162-210300-
LAKE SUPERIOR

STATION/POSITION TIME  TEMP    WIND        PRES    WAVE
                       AIR SEA DIR/SP/G            HT/PER
                 (UTC) (F)     (DEG/KT/KT) (MB)    (FT/S)
W MID LAKE BUOY  0150   62 63   30/ 17/ 21 1016.7R   4/ 5
DEVILS ISLAND    0200   61      70/ 13/ 15 1018.0R
SAXON HARBOR     0130   65      40/ 16/ 20 1016.6R

LMZ867-665-643>646-210300-
LAKE MICHIGAN

STATION/POSITION TIME  TEMP    WIND        PRES    WAVE
                       AIR SEA DIR/SP/G            HT/PER
                 (UTC) (F)     (DEG/KT/KT) (MB)    (FT/S)
CHAMBERS ISLAND  0140   73      30/  9/ 10 1013.2S
N MID LAKE BUOY  0200   73 73   90/ 10/ 10 1013.6
NORTHPORT PIER   0200   72      50/  4/  6 1013.9
KEWAUNEE LAKESHO 0154   72      40/  7/ 12 1012.5R
SHEBOYGAN LAKESH 0200   75      60/ 19/ 21 1010.7S
PORT WASHINGTON  0130   75     100/ 15/ 20 1011.9S
ATWATER BUOY     0137   76 75  110/ 19/ 23 1010.0S   5/ 5
MILWAUKEE LAKESH 0200   76     100/ 23/ 26   N/A
S MID LAKE BUOY  0150   76 76  100/ 19/ 23 1009.2F   4/ 5
KENOSHA   LAKESH 0200   75     130/ 23/ 29 1008.5
TC  - TEMPERATURE IN CELSIUS
VSB - VISIBILITY IN STATUTE MILES
WCI - WIND CHILL INDEX
HX  - HEAT INDEX